Date String (YYYY-MM-DD hh:mm:ss) UTC,Instrument flags,Ambient pressure (hPa),Sample flow (lpm),Bypass flow (lpm),Sample temperature (°C),Ambient temperature (°C),ASC tube jacket temperature (°C),LED temperature (°C),Box temperature (°C),Sample RH (%),Span deviation,Mass concentration (μg/m³),Mass concentration (μg/m³),Mass concentration (μg/m³)
DateTimeUTC,F1_M11,P_M11,Q1_M11,Q2_M11,T1_M11,T2_M11,T3_M11,T4_M11,T5_M11,U1_M11,ZSPAN_M11,X0_M11,X2_M11,X1_M11
2023-05-24 08:00:00,,0830.0,5.01,0.00,30.0,28.3,00.0,38.3,31.5,23.2,0003.4,0037.97,0025.25,0024.14
2023-05-24 08:01:00,,0830.1,5.00,0.00,30.0,28.3,00.0,38.3,31.5,23.5,0003.5,0037.80,0025.32,0024.19
2023-05-24 08:02:00,,0830.1,5.00,0.00,30.0,28.3,00.0,38.3,31.5,23.7,0003.5,0037.77,0025.34,0024.21
2023-05-24 08:03:00,,0830.0,4.99,0.00,30.0,28.3,00.0,38.3,31.5,24.0,0003.5,0038.43,0025.42,0024.25
2023-05-24 08:04:00,,0830.0,5.01,0.00,30.0,28.3,00.0,38.3,31.5,23.9,0003.5,0039.35,0025.44,0024.24
2023-05-24 08:05:00,,0830.0,5.01,0.00,30.0,28.3,00.0,38.3,31.5,23.7,0003.4,0041.33,0025.46,0024.24
2023-05-24 08:06:00,,0830.0,5.00,0.00,30.0,28.3,00.0,38.3,31.5,23.4,0003.3,0043.05,0025.49,0024.24
2023-05-24 08:07:00,,0830.0,5.00,0.00,30.0,28.3,00.0,38.3,31.5,23.1,0003.4,0042.79,0025.42,0024.19
2023-05-24 08:08:00,,0830.0,4.99,0.00,30.0,28.3,00.0,38.3,31.5,23.1,0003.4,0042.20,0025.39,0024.19
2023-05-24 08:09:00,,0830.0,4.99,0.00,30.0,28.3,00.0,38.3,31.5,22.9,0003.4,0041.84,0025.41,0024.23
2023-05-24 08:10:00,,0830.0,4.99,0.00,30.0,28.2,00.0,38.3,31.5,22.8,0003.4,0041.25,0025.38,0024.22
2023-05-24 08:11:00,,0830.0,5.01,0.00,29.9,28.2,00.0,38.3,31.5,22.9,0003.4,0041.50,0025.41,0024.24
2023-05-24 08:12:00,,0830.0,4.99,0.00,29.9,28.3,00.0,38.3,31.5,23.1,0003.4,0041.84,0025.34,0024.22
2023-05-24 08:13:00,,0830.0,5.00,0.00,29.9,28.3,00.0,38.3,31.5,23.0,0003.5,0041.41,0025.23,0024.17
2023-05-24 08:14:00,,0830.0,5.00,0.00,29.9,28.2,00.0,38.3,31.5,23.0,0003.5,0040.92,0025.08,0024.09
2023-05-24 08:15:00,,0829.9,5.00,0.00,29.9,28.2,00.0,38.3,31.5,23.2,0003.6,0039.87,0025.02,0024.06
2023-05-24 08:16:00,,0829.9,5.01,0.00,29.9,28.2,00.0,38.3,31.4,23.4,0003.7,0037.92,0025.01,0024.04
2023-05-24 08:17:00,,0829.9,5.00,0.00,29.9,28.2,00.0,38.3,31.5,23.5,0003.7,0036.52,0025.03,0024.03
2023-05-24 08:18:00,,0829.9,5.00,0.00,29.9,28.2,00.0,38.3,31.5,23.4,0003.7,0036.71,0025.02,0024.01
2023-05-24 08:19:00,,0829.9,5.00,0.00,29.9,28.2,00.0,38.3,31.5,22.9,0003.7,0036.61,0024.94,0023.90
2023-05-24 08:20:00,,0829.8,5.00,0.00,29.9,28.2,00.0,38.3,31.4,22.3,0003.6,0036.49,0024.80,0023.75
2023-05-24 08:21:00,,0829.9,5.00,0.00,29.9,28.2,00.0,38.3,31.4,22.2,0003.6,0035.79,0024.67,0023.62
2023-05-24 08:22:00,,0829.9,4.99,0.00,29.9,28.2,00.0,38.3,31.4,22.3,0003.5,0034.60,0024.50,0023.46
2023-05-24 08:23:00,,0829.9,4.99,0.00,29.9,28.2,00.0,38.3,31.4,21.9,0003.5,0033.97,0024.32,0023.27
2023-05-24 08:24:00,,0829.9,5.00,0.00,29.9,28.2,00.0,38.3,31.4,21.4,0003.4,0034.11,0024.11,0023.04
2023-05-24 08:25:00,,0829.9,5.01,0.00,29.9,28.2,00.0,38.3,31.4,22.2,0003.4,0034.17,0023.99,0022.87
2023-05-24 08:26:00,,0829.9,5.01,0.00,29.9,28.2,00.0,38.3,31.4,22.9,0003.4,0033.98,0023.89,0022.78
2023-05-24 08:27:00,,0829.8,5.00,0.00,29.9,28.2,00.0,38.3,31.4,23.1,0003.5,0034.01,0023.86,0022.76
2023-05-24 08:28:00,,0829.9,5.00,0.00,29.9,28.2,00.0,38.3,31.4,22.6,0003.5,0033.70,0023.75,0022.69
2023-05-24 08:29:00,,0829.9,5.00,0.00,29.9,28.2,00.0,38.3,31.4,21.7,0003.5,0033.74,0023.53,0022.51
2023-05-24 08:30:00,,0829.9,5.00,0.00,29.9,28.2,00.0,38.3,31.4,21.4,0003.5,0033.74,0023.35,0022.36
2023-05-24 08:31:00,,0829.9,4.99,0.00,29.9,28.2,00.0,38.3,31.4,21.2,0003.6,0033.68,0023.22,0022.23
2023-05-24 08:32:00,,0829.8,5.00,0.00,29.9,28.2,00.0,38.3,31.5,21.2,0003.7,0033.37,0023.07,0022.07
2023-05-24 08:33:00,,0829.8,5.00,0.00,29.9,28.2,00.0,38.3,31.5,21.4,0003.7,0033.28,0022.97,0021.99
2023-05-24 08:34:00,,0829.8,5.00,0.00,29.9,28.2,00.0,38.3,31.4,21.4,0003.7,0033.56,0022.88,0021.91
2023-05-24 08:35:00,,0829.8,5.00,0.00,29.9,28.2,00.0,38.3,31.4,21.0,0003.8,0033.72,0022.86,0021.87
2023-05-24 08:36:00,,0829.8,5.01,0.00,29.9,28.2,00.0,38.3,31.4,20.9,0003.8,0033.58,0022.75,0021.77
2023-05-24 08:37:00,,0829.8,5.00,0.00,29.9,28.2,00.0,38.3,31.4,20.9,0003.8,0033.52,0022.49,0021.58
2023-05-24 08:38:00,,0829.8,5.00,0.00,29.9,28.2,00.0,38.3,31.4,20.8,0003.7,0033.06,0022.21,0021.32
2023-05-24 08:39:00,,0829.8,5.00,0.00,29.9,28.2,00.0,38.3,31.4,20.7,0003.6,0032.73,0021.95,0021.03
2023-05-24 08:40:00,,0829.8,5.00,0.00,29.9,28.2,00.0,38.3,31.4,20.7,0003.7,0032.19,0021.81,0020.87
2023-05-24 08:41:00,,0829.8,5.00,0.00,29.9,28.2,00.0,38.3,31.4,20.6,0003.7,0031.95,0021.75,0020.78
2023-05-24 08:42:00,,0829.8,5.00,0.00,29.9,28.2,00.0,38.3,31.4,20.4,0003.6,0031.80,0021.63,0020.65
2023-05-24 08:43:00,,0829.9,5.01,0.00,29.9,28.2,00.0,38.3,31.4,20.4,0003.6,0031.93,0021.49,0020.52
2023-05-24 08:44:00,,0829.9,5.01,0.00,29.9,28.2,00.0,38.3,31.5,20.4,0003.6,0031.90,0021.30,0020.33
2023-05-24 08:45:00,,0829.9,5.00,0.00,29.9,28.3,00.0,38.3,31.5,20.4,0003.7,0031.07,0021.16,0020.19
2023-05-24 08:46:00,,0829.9,5.00,0.00,29.9,28.3,00.0,38.3,31.5,20.4,0003.7,0030.74,0021.07,0020.13
2023-05-24 08:47:00,,0830.0,5.00,0.00,29.9,28.3,00.0,38.3,31.5,20.2,0003.8,0030.07,0021.01,0020.10
2023-05-24 08:48:00,,0829.9,5.00,0.00,29.9,28.3,00.0,38.3,31.5,20.3,0003.7,0029.73,0020.94,0020.04
2023-05-24 08:49:00,,0830.0,5.00,0.00,29.9,28.3,00.0,38.3,31.5,20.6,0003.7,0029.67,0020.89,0020.00
2023-05-24 08:50:00,,0830.0,5.00,0.00,30.0,28.3,00.0,38.3,31.5,20.7,0003.7,0029.44,0020.83,0019.98
2023-05-24 08:51:00,,0830.0,4.99,0.00,30.0,28.3,00.0,38.3,31.5,20.7,0003.6,0029.45,0020.81,0019.95
2023-05-24 08:52:00,,0830.0,4.99,0.00,30.0,28.3,00.0,38.3,31.5,20.8,0003.6,0029.22,0020.75,0019.91
2023-05-24 08:53:00,,0830.0,5.00,0.00,30.0,28.3,00.0,38.3,31.5,21.2,0003.7,0029.07,0020.79,0019.97
2023-05-24 08:54:00,,0830.0,5.01,0.00,30.0,28.3,00.0,38.3,31.5,21.6,0003.8,0029.00,0020.95,0020.14
2023-05-24 08:55:00,,0830.0,5.00,0.00,30.0,28.3,00.0,38.3,31.5,22.2,0003.8,0029.53,0021.16,0020.35
2023-05-24 08:56:00,,0830.0,5.01,0.00,30.0,28.3,00.0,38.3,31.5,22.8,0003.8,0030.29,0021.41,0020.62
2023-05-24 08:57:00,,0830.0,5.00,0.00,30.0,28.3,00.0,38.3,31.5,23.3,0003.7,0031.34,0021.80,0020.95
2023-05-24 08:58:00,,0830.0,5.00,0.00,30.0,28.4,00.0,38.3,31.5,23.7,0003.6,0032.22,0022.27,0021.31
2023-05-24 08:59:00,,0830.0,5.00,0.00,30.0,28.4,00.0,38.3,31.5,23.8,0003.7,0033.24,0022.75,0021.70
